Location: Alma
(34.4195°N, 97.6123°W)
Time: 06:41:42
(UTC+00:00)

Hubble Space Telescope - Pass Details

Date: 25 May 2024
Orbit: 511 x 514 km, 28.5° (Epoch: 13 June)

Event Time Altitude Azimuth Distance (km) Brightness Sun altitude
Rises 02:38:29 0° 218° (SW) 2,603 4.3 -12.4°
Reaches altitude 10° 02:41:34 10° 192° (SSW) 1,719 3.1 -12.9°
Enters shadow 02:43:11 14° 169° (SSE) 1,491 2.6 -13.1°
